Regional Weather Roundup
Issued by NWS

Home | Current Version | Previous Version | Text Only | Print | Product List | Glossary Off
Versions: 1 2 3 4 5 6 7 8 9 10 11 12 13 14 15 16 17 18 19 20 21 22 23 24 25 26 27 28 29 30 31 32 33 34 35 36 37 38 39 40 41 42 43 44 45 46 47 48 49 50

000
ASUS45 KBOU 250507
RWRCO

WEATHER ROUNDUP FOR COLORADO
NATIONAL WEATHER SERVICE DENVER/BOULDER CO
1100 PM MDT SUN JUL 24 2016

NOTE: "FAIR" INDICATES FEW OR NO CLOUDS BELOW 12000 FEET WITH NO
SIGNIFICANT WEATHER AND/OR OBSTRUCTIONS TO VISIBILITY.

COZ001>005-013-030-031-250600-
...NORTHWEST COLORADO...

CITY           SKY/WX    TMP DP  RH WIND       PRES   REMARKS
CRAIG          FAIR      68  43  40 CALM      30.22R
HAYDEN         FAIR      66  39  37 E8        30.25S
MEEKER         FAIR      64  43  46 CALM      30.24R
MOUNT WERNER   NOT AVBL
STEAMBOAT SPGS FAIR      61  42  50 CALM      30.29R
WALDEN         FAIR      52  37  58 SE7       30.41R
$$

COZ006>008-011-250600-
...WEST CENTRAL VALLEYS...

CITY           SKY/WX    TMP DP  RH WIND       PRES   REMARKS
GRAND JUNCTION FAIR      81  37  20 SE8       30.05S
MONTROSE       FAIR      74  43  32 SE9       30.19R
EAGLE          FAIR      64  43  45 E7        30.30R
RIFLE          FAIR      73  43  33 S6        30.15R
DELTA          FAIR      77  39  25 NE9       30.13R
NUCLA          FAIR     N/A N/A N/A E12       30.22S
$$

COZ017>023-064>068-250600-
...SOUTHWEST COLORADO...

CITY           SKY/WX    TMP DP  RH WIND       PRES   REMARKS
DURANGO        FAIR      65  46  50 E3        30.30R
CORTEZ         FAIR      80  42  25 S6        30.22R
PAGOSA SPRINGS FAIR      66  39  37 CALM      30.40S
TELLURIDE      FAIR      58  44  58 SE7       30.51S
WOLF CREEK PAS FAIR      50  36  57 SW12      30.75S
$$

COZ009-010-012-014-032>034-037-058>063-250600-
...CENTRAL COLORADO...

CITY           SKY/WX    TMP DP  RH WIND       PRES   REMARKS
ASPEN          FAIR      60  41  49 S9        30.37R
BUENA VISTA    FAIR      63  48  59 E5        30.44R
COPPER MTN     FAIR      59  23  25 CALM      30.73F
BERTHOUD PASS  FAIR      43  30  61 SE12G17   30.77S
COTTONWOOD PAS FAIR      61  41  48 CALM      30.58S
GUNNISON       FAIR      61  39  44 CALM      30.40R
KREMMLING      FAIR      54  48  82 CALM      30.38R
LEADVILLE      FAIR      53  36  52 S6        30.56R
MONARCH PASS   FAIR      48  41  76 E25       30.82R
SALIDA         FAIR      69  47  45 SE9G17    30.47S
SUNLIGHT       FAIR      61  36  39 SE3       30.64S
WILKERSON PASS FAIR      52  37  58 S6        30.71S
$$

COZ069>075-250600-
...SAN LUIS VALLEY/SANGRE DE CRISTO MOUNTAINS...

CITY           SKY/WX    TMP DP  RH WIND       PRES   REMARKS
ALAMOSA        FAIR      64  48  56 SE7       30.34S
LA VETA PASS   FAIR      57  41  54 CALM      30.58S
SAGUACHE       FAIR      68  43  40 N12       30.38R
$$

COZ035-036-038>040-250600-
...NORTHERN COLORADO FRONT RANGE...

CITY           SKY/WX    TMP DP  RH WIND       PRES   REMARKS
DENVER INTL AP FAIR      63  56  78 SE22      30.28R
DMNS CITY PARK   N/A     67  54  64 E6G15     30.28R
AURORA         PTCLDY    63  55  77 SE21G30   30.28S
FRONT RANGE AP NOT AVBL
ERIE MUNI ARPT FAIR      67  55  65 CALM      30.29R
BOULDER MUN AP FAIR      64  55  72 N3        30.30R
CENTENNIAL     FAIR      65  53  65 SE14      30.30R
BROOMFIELD     NOT AVBL
LONGMONT       MOCLDY    67  59  76 CALM      30.31R
$$

COZ041-046-047-076>085-087-088-250600-
...PIKES PEAK/PALMER DIVIDE AND SOUTHERN FOOTHILLS...

CITY           SKY/WX    TMP DP  RH WIND       PRES   REMARKS
COLO. SPRINGS  CLOUDY    66  53  63 E18       30.33F
A. F. ACADEMY  CLOUDY    66  54  65 S7        30.35R
SCHRIEVER AFB  NOT AVBL
ELLICOTT       FAIR     N/A N/A N/A E14       30.33R
FALCON         FAIR      61  52  72 E6        30.40R
FORT CARSON    LGT RAIN  66  57  72 E6        30.30F
LIMON          FAIR      60  56  86 E17G26    30.29F
MONUMENT HILL  FAIR      57  52  82 E16       30.40S
TRINIDAD       NOT AVBL
$$

COZ042>045-048>051-090-091-250600-
...NORTHEAST COLORADO...

CITY           SKY/WX    TMP DP  RH WIND       PRES   REMARKS
GREELEY ARPT   FAIR      63  57  82 CALM      30.29S
AKRON          FAIR      62  53  72 SE16      30.24R
BURLINGTON     FAIR      66  60  81 E17G31    30.24R
WRAY           NOT AVBL
STERLING       FAIR      66  54  63 S9        30.18R
HOLYOKE        FAIR      70  54  56 W6        30.14R
FORT MORGAN    FAIR      63  54  73 SE5       30.25R
$$

COZ086-089-092>099-250600-
...SOUTHEAST COLORADO...

CITY           SKY/WX    TMP DP  RH WIND       PRES   REMARKS
PUEBLO         FAIR      74  59  59 NE13      30.24R
LA JUNTA       FAIR      69  60  73 NE17G25   30.19R
LAMAR          FAIR      69  60  73 NE16G24   30.16R
SPRINGFIELD      N/A     72  58  61 SW3       30.19S
$$



USA.gov is the U.S. government's official web portal to all federal, state and local government web resources and services.